Location: ??? ???
(33.4974°N, 35.4618°E)
Time: 12:11:41
(UTC+00:00)

Atlas Centaur 2 - Pass Details

Date: 29 October 2020
Orbit: 459 x 1309 km, 30.4° (Epoch: 26 November)

Event Time Altitude Azimuth Distance (km) Brightness Sun altitude
Rises 17:18:33 0° 271° (W) 4,208 6.9 -31.8°
Reaches altitude 10° 17:21:27 10° 269° (W) 3,287 6.1 -32.4°
Enters shadow 17:29:52 68° 189° (S) 1,384 3.1 -34.1°
